Regional Weather Roundup
Issued by NWS

Home | Current Version | Previous Version | Text Only | Print | Product List | Glossary On
Versions: 1 2 3 4 5 6 7 8 9 10 11 12 13 14 15 16 17 18 19 20 21 22 23 24 25 26
000
ASUS44 KLIX 201413
RWRLA
LOUISIANA WEATHER ROUNDUP
NATIONAL WEATHER SERVICE NEW ORLEANS LA
900 AM CDT THU JUL 20 2017

NOTE: "FAIR" INDICATES FEW OR NO CLOUDS BELOW 12,000 FEET WITH NO
      SIGNIFICANT WEATHER AND/OR OBSTRUCTIONS TO VISIBILITY.
      SKY/WX - SKY CONDITION AND SIGNIFICANT WEATHER.
      TMP - AIR TEMPERATURE.    DP   - DEWPOINT TEMPERATURE.
      RH  - RELATIVE HUMIDITY.  PRES - PRESSURE.
      HX  - HEAT INDEX.         WCI  - WIND CHILL INDEX.

*  THESE STATIONS ARE NOT NWS OR FAA STATIONS AND ARE NOT UNDER
   NWS QUALITY CONTROL.

LAZ040-048-061>063-065-066-069-201500-
SOUTHEAST LOUISIANA

CITY           SKY/WX    TMP DP  RH WIND       PRES   REMARKS
N.O. INTL ARPT MOSUNNY   87  76  69 VRB5      30.12S HX  97
N.O. LAKEFRONT SUNNY     87  77  72 NW7       30.13R HX  99
N.O. DOWNTOWN*   N/A     87  75  67 N5          N/A  HX  96
RESERVE*       FAIR      86  75  70 NW5       30.13S HX  95
SLIDELL        SUNNY     85  77  77 NW3       30.12R HX  95
BATON ROUGE    SUNNY     86  75  69 NW5       30.13S HX  95
BOOTHVILLE     SUNNY     85  79  82 NW3       30.13R HX  98
BELLE CHASSE   NOT AVBL
BOGALUSA*      FAIR      84  76  77 CALM      30.14R
GALLIANO*      SUNNY     82  75  78 CALM      30.13S
NEW ROADS*     FAIR      82  77  84 W3        30.13F
GONZALES*      FAIR      84  75  73 CALM      30.12S
HAMMOND*       SUNNY     84  73  70 CALM      30.13S
HOUMA*         SUNNY     82  75  78 CALM      30.14R
PORT FOURCHON* SUNNY     84  75  74 NW7       30.13S

$$

LAZ041-044-053-054-201500-
SOUTHWEST LOUISIANA

CITY           SKY/WX    TMP DP  RH WIND       PRES   REMARKS
LAKE CHARLES   SUNNY     87  78  74 NW8       30.13R HX 100
LAFAYETTE      SUNNY     85  78  80 NW6       30.14R HX  96
PATTERSON      SUNNY     85  79  82 W3        30.14R HX  98
SALT POINT       N/A     85  77  77 VRB3      30.12R HX  95
NEW IBERIA     SUNNY     84  75  74 NW5       30.14R
CHENAULT AIRPK NOT AVBL

$$

LAZ027-028-201500-
CENTRAL LOUISIANA

CITY           SKY/WX    TMP DP  RH WIND       PRES   REMARKS
FORT POLK      SUNNY     84  77  81 NW3       30.13S
ALEXANDRIA INT SUNNY     82  77  84 W3        30.12S
ALEXANDRIA     SUNNY     85  78  80 CALM      30.13S HX  96

$$

LAZ001-002-201500-
NORTHWEST LOUISIANA

CITY           SKY/WX    TMP DP  RH WIND       PRES   REMARKS
SHREVEPORT     SUNNY     85  78  80 W7        30.13R HX  96
BARKSDALE AFB  SUNNY     85  75  70 CALM      30.13R
DTN SHREVEPORT SUNNY     86  76  71 VRB5      30.13R HX  96

$$

LAZ014-016-201500-
NORTHEAST LOUISIANA

CITY           SKY/WX    TMP DP  RH WIND       PRES   REMARKS
MONROE         SUNNY     84  76  76 SW3       30.13R
TALLULAH       SUNNY     87  77  72 CALM      30.13S HX  99

$$





USA.gov is the U.S. government's official web portal to all federal, state and local government web resources and services.